Location: ??????
(42.0089°N, 44.3281°E)
Time: 11:11:21
(UTC+00:00)

Cosmos 2251 Rocket - Pass Details

Date: 07 June 2022
Orbit: 764 x 791 km, 74.0° (Epoch: 01 July)

Event Time Altitude Azimuth Distance (km) Brightness Sun altitude
Rises 22:02:15 0° 333° (NNW) 3,259 7.5 -23.7°
Reaches altitude 10° 22:04:44 10° 327° (NNW) 2,332 6.5 -23.6°
Maximum altitude 22:09:42 43° 257° (WSW) 1,086 4.0 -23.3°
Enters shadow 22:09:51 43° 253° (WSW) 1,088 4.0 -23.3°
